Flag for Germany Weather past 2 weeks in Neustadt am Rübenberge, Lower Saxony, Germany

Now
57 °F

Cool.


Feels Like: 55 °F
Forecast: 53 / 66 °F
Wind: 8 mph from Southwest

Location: Wunstorf Airport

Current Time: Sep 2, 2015 at 12:21:28 AM

Latest Report: Sep 1, 2015 at 11:20 PM


Visibility: 3 mi

Pressure: 29.95 "Hg

Humidity: 88%

Dew point: 54 °F

Location of Neustadt am RübenbergeLocation

Historic Weather in Neustadt am Rübenberge — Graph

°F

Neustadt am Rübenberge temperature yesterday

Maximum temperature yesterday: 73 °F (at 12:20 AM)
Minimum temperature yesterday: 57 °F (at 10:20 PM)
Average temperature yesterday: 65 °F

Past Weeks' High & Low Weather Summary

 TemperatureHumidityPressure
High91 °F (Aug 31, 5:20 PM)100% (Aug 17, 10:20 PM)30.27 "Hg (Aug 17, 10:20 PM)
Low50 °F (Aug 29, 6:20 AM)32% (Aug 22, 1:20 PM)29.59 "Hg (Aug 24, 6:20 PM)
Average66 °F74%29.98 "Hg
* Reported Aug 17 10:20 PM — Sep 1 10:20 PM, Neustadt am Rübenberge, Weather by CustomWeather, © 2015

Note: Actual official high and low records may vary slightly from our data, if they occured in-between our weather recording intervals... More about our weather records

Advertising

Neustadt am Rübenberge weather history for previous 24 hours

 ConditionsComfort  
Time TempWeatherWind HumidityBarometerVisibility
10:20 PM
Tue, Sep 1
57 °FCool.7 mph88%29.95 "Hg3 mi
9:20 PM59 °FCool.8 mph88%29.95 "Hg3 mi
8:20 PM59 °FCool.12 mph88%29.92 "Hg3 mi
7:20 PM61 °FBroken clouds.12 mph88%29.92 "HgN/A
6:20 PM61 °FBroken clouds.9 mph88%29.89 "HgN/A
5:20 PM61 °FRain. Partly sunny.9 mph88%29.89 "HgN/A
4:20 PM61 °FRain. Partly sunny.9 mph94%29.86 "HgN/A
3:20 PM61 °FLight rain. Broken clouds.12 mph94%29.86 "HgN/A
2:20 PM63 °FLight rain. Partly sunny.8 mph88%29.83 "HgN/A
1:20 PM63 °FRain. Broken clouds.12 mph88%29.83 "Hg6 mi
12:20 PM64 °FRain. Broken clouds.13 mph78%29.80 "Hg6 mi
11:20 AM66 °FBroken clouds.10 mph78%29.77 "HgN/A
10:20 AM66 °FBroken clouds.13 mph78%29.80 "HgN/A
9:20 AM68 °FPartly sunny.9 mph73%29.77 "HgN/A
8:20 AM66 °FPartly sunny.9 mph73%29.77 "HgN/A
7:20 AM68 °FPassing clouds.15 mph73%29.77 "HgN/A
6:20 AM68 °FPassing clouds.10 mph83%29.74 "HgN/A
5:20 AM70 °FPassing clouds.12 mph78%29.77 "HgN/A
3:20 AM70 °FMild.9 mph83%29.77 "Hg3 mi
2:20 AM70 °FMild.8 mph83%29.77 "Hg3 mi
1:20 AM72 °FMild.5 mph78%29.77 "Hg3 mi
12:20 AM73 °FMild.12 mph74%29.77 "Hg3 mi
Weather by CustomWeather, © 2015

See weather overviewHow to use our weather pages